星链-35698(STARLINK-35698)

导读 | 豆包AI

STARLINK-35698是美国于2025年11月15日发射的星链系列卫星,隶属于SpaceX公司打造的星链卫星互联网星座。该卫星主要服务于全球范围的卫星互联网接入,为偏远地区、移动载体等场景提供低延迟宽带通信服务,进一步扩充了星链星座的在轨规模,提升星座覆盖与服务能力。

基本信息
目录编号:
66481
目录名称:
STARLINK-35698
国际标识:
2025-262AB
轨道中心:
EARTH
卫星名称:
星链-35698
卫星全名:
星链-35698(STARLINK-35698)
卫星状态:
在轨 (已飞行119 天)
发射日期:
2025-11-15 UTC
国别 :
美国 (US)
星等 :
--
轨道信息
数据来源 国际轨道数据
星历时间: 2026-03-14T03:53:58+0800
10小时前
查看轨道信息
半长轴: 6861.136km
偏心率: 0.0001653
轨道倾角: 43.002°
近地点辐角 270.528°
升交点赤经 272.428°
平近点角 89.538°
近地点: 481.864km
远地点: 484.134km
周期: 94.266分钟
每日圈数: 15.27597
详细信息
固有亮度:
5
最大亮度:
2.5
卫星平台:
Starlink V1.0
覆盖范围:
全球
运营商:
太空探索技术公司
运营商所在国:
美国
制造商(研发单位):
太空探索技术公司
制造商所在国:
美国
使用方式:
暂无
卫星简介
Starlink 计划是 SpaceX 推出的全球卫星互联网项目,通过发射低轨道卫星,为全球尤其是偏远地区提供高速、低延迟的互联网服务。自 2019 年起,Starlink 已部署数千颗卫星,旨在缩小全球数字鸿沟,推动互联网普及。该项目还为军事、航空等行业提供通信支持,带来广泛经济效益。
2D轨道图
3D轨道图
轨道高度分析图
轨道倾角分析图
轨道综合分析图
查看轨道综合分析图